Home   Weather   Bogota   Past weeks

Flag for Colombia Past Weather in Bogota, Colombia — Yesterday and Last 2 Weeks

Now
63 °F

Scattered clouds.


Feels Like: 63 °F
Forecast: N/A
Wind: 7 mph from Southeast

Location: Bogota / Eldorado

Current Time: Apr 30, 2017 at 4:07:06 pm

Latest Report: Apr 30, 2017 at 3:30 pm


Visibility: N/A

Pressure: 30.29 "Hg (22.25 "Hg at 2618m altitude)

Humidity: 64%

Dew Point: 50 °F

Location of BogotaLocation

Past Weather in Bogota — Graph

°F

Bogota Temperature Yesterday

Maximum temperature yesterday: 66 °F (at 2:00 pm)
Minimum temperature yesterday: 52 °F (at 4:00 am)
Average temperature yesterday: 58 °F

High & Low Weather Summary for the Past Weeks

 TemperatureHumidityPressure
High72 °F (Apr 27, 2:00 pm)100% (Apr 22, 2:00 am)30.41 "Hg (Apr 22, 2:00 am)
Low43 °F (Apr 27, 5:30 am)33% (Apr 27, 12:00 pm)30.21 "Hg (Apr 23, 4:00 pm)
Average58 °F76%30.33 "Hg
* Reported Apr 15 2:00 pm — Apr 30 2:00 pm, Bogota, Weather by CustomWeather, © 2017

Note: Actual official high and low records may vary slightly from our data, if they occured in-between our weather recording intervals... More about our weather records

Advertising

Bogota Weather History for the Previous 24 Hours

Scroll right to see more
 ConditionsComfort  
Time TempWeatherWind HumidityBarometerVisibility
2:00 pm
Sun, Apr 30
64 °FPartly sunny.9 mph60%30.31 "HgN/A
1:00 pm64 °FScattered showers. Partly sunny.7 mph56%30.34 "HgN/A
12:00 pm63 °FPartly sunny.6 mph59%30.37 "HgN/A
11:00 am63 °FBroken clouds.6 mph59%30.39 "HgN/A
10:00 am61 °FScattered clouds.7 mph68%30.39 "HgN/A
9:00 am59 °FScattered showers. Scattered clouds.5 mph77%30.40 "HgN/A
8:00 am57 °FScattered showers. Broken clouds.3 mph88%30.39 "Hg5 mi
7:00 am54 °FDrizzle. Partly sunny.3 mph88%30.36 "HgN/A
6:06 am54 °FLight rain. Broken clouds.3 mph88%30.35 "HgN/A
5:30 am54 °FPassing clouds.5 mph88%30.35 "HgN/A
5:00 am55 °FPassing clouds.2 mph82%30.33 "HgN/A
4:00 am54 °FPassing clouds.6 mph88%30.33 "HgN/A
3:00 am55 °FPassing clouds.2 mph82%30.33 "HgN/A
2:00 am55 °FPassing clouds.6 mph82%30.33 "HgN/A
1:00 am55 °FPassing clouds.2 mph82%30.34 "HgN/A
12:00 am57 °FPassing clouds.2 mph77%30.37 "HgN/A
11:00 pm
Sat, Apr 29
57 °FPassing clouds.5 mph72%30.38 "HgN/A
10:00 pm57 °FPassing clouds.2 mph77%30.38 "HgN/A
9:00 pm57 °FPassing clouds.7 mph77%30.38 "HgN/A
8:00 pm57 °FPassing clouds.5 mph77%30.36 "HgN/A
7:00 pm61 °FPassing clouds.5 mph63%30.33 "HgN/A
6:00 pm61 °FScattered showers. Broken clouds.6 mph63%30.31 "HgN/A
5:00 pm61 °FScattered showers. Partly sunny.7 mph68%30.28 "HgN/A
4:00 pm63 °FScattered showers. Partly sunny.9 mph64%30.26 "HgN/A
Weather by CustomWeather, © 2017

See weather overviewHow to use our weather pages